Weather in Kamyshino-Kurskoye

Russia / Omsk Oblast     55°57′56″N   74°51′00″E
temp.,
°C
wind,
m/s
gust,
m/s
humid.,
%
clouds,
%
prec.,
mm/h
press.,
hPa
HPBL,
m
23 april, fri
fri2300:000sse35643 0.0 104568
03:000s356745 0.0 1045100
06:00−1s356818 0.0 1046111
09:00+4s464821 0.0 1046677
12:00+6s45380 0.0 10451446
15:00+8s45360 0.0 10431401
18:00+8s45370 0.0 10421467
21:00+4sse46580 0.0 104296
24 april, sat
sat2400:00+2sse376933 0.0 1041135
03:00+1sse376980 0.0 1040112
06:000s357143 0.0 103982
09:00+5s4654100 0.0 1038493
12:00+8s454178 0.0 10361372
15:00+9ssw4536100 0.0 10341660
18:00+10ssw4535100 0.0 10321651
21:00+6s3453100 0.0 103255
25 april, sun
sun2500:00+5sse3658100 0.0 1031108
03:00+4sse4866100 0.0 1030163
06:00+4sse41066100 0.0 1029227
09:00+6sse51156100 0.0 1028465
12:00+10sse793998 0.0 10271252
15:00+11sse7835100 0.0 10251384
18:00+11se6941100 0.0 10241411
21:00+8ese7145099 0.0 1023447
26 april, mon
mon2600:00+7se7155397 0.0 1021398
03:00+6se71553100 0.0 1019434
06:00+5sse6125829 0.0 1018318
09:00+8s7125898 0.0 1017431
12:00+12ssw8116795 0.2 10151444
15:00+15wsw1013345 0.7 10152568
18:00+13wsw7133469 0.7 10163250
21:00+9w4105545 0.1 1017279
27 april, tue
tue2700:00+6wsw377432 0.4 1018131
03:00+4sw410685 0.0 1019178
06:00+4wsw377099 0.0 1020130
09:00+8wsw4754100 0.0 1020360
12:00+13wsw6837100 0.0 10191648
15:00+13sw6735100 0.0 10181794
18:00+7s4880100 1.0 1017650
21:00+6sse61191100 3.6 1014468